Weather History for KAPY - January, 2014

Change the Weather History Date:

Tuesday, January 28, 2014

  Actual Average (KLRD) Record (KLRD)
Temperature  
Mean Temperature 42 °F 58 °F  
Max Temperature 48 °F 68 °F 92 °F (1909)
Min Temperature 36 °F 47 °F 25 °F (1932)
Degree Days  
Heating Degree Days 22 8  
Month to date heating degree days 266  
Since 1 July heating degree days 656  
Cooling Degree Days 0 1  
Month to date cooling degree days 28  
Year to date cooling degree days 28  
Moisture  
Dew Point 17 °F    
Average Humidity 34    
Maximum Humidity 48    
Minimum Humidity 29    
Precipitation  
Precipitation 0.00 in 0.03 in 0.83 in (1941)
Month to date precipitation 0.82  
Year to date precipitation 0.82  
Sea Level Pressure  
Sea Level Pressure 30.28 in    
Wind  
Wind Speed 9 mph (North)    
Max Wind Speed 16 mph    
Max Gust Speed 22 mph    
Visibility 10 miles    
Events Rain    
T = Trace of Precipitation, MM = Missing Value Source: NWS Daily Summary

Daily Weather History Graph

Daily Weather History Graph

Search for Another Location

Airport or City:

Trip Planner

Search our weather history database for the weather conditions in past years. The results will help you decide how hot, cold, wet, or windy it might be!

Date:

Astronomy

Jan. 28, 2014 Rise Set
Actual Time 7:24 AM CST 6:15 PM CST
Civil Twilight 6:59 AM CST 6:40 PM CST
Nautical Twilight 6:31 AM CST 7:08 PM CST
Astronomical Twilight 6:04 AM CST 7:36 PM CST
Moon 5:04 AM CST (1/28) 4:10 PM CST (1/28)
Length of Visible Light 11h 40m
Length of Day
10h 51m
Waning Crescent, 7% of the Moon is Illuminated
Jan 28
Waning Crescent
Jan 30
New
Feb 6
First Quarter
Feb 14
Full
Feb 22
Last Quarter

Hourly Weather History & Observations

Time (CST) Temp. Windchill Dew Point Humidity Pressure Visibility Wind Dir Wind Speed Gust Speed Precip Events Conditions
12:15 AM 48.6 °F - 18.7 °F 31% 30.15 in 10.0 mi NNE 8.1 mph - N/A   Clear
12:35 AM 48.2 °F - 18.1 °F 30% 30.15 in 10.0 mi North 8.1 mph - N/A   Clear
12:55 AM 47.8 °F - 17.6 °F 30% 30.15 in 10.0 mi North 6.9 mph - N/A   Clear
1:15 AM 47.3 °F - 18.5 °F 32% 30.15 in 10.0 mi North 3.5 mph - N/A   Clear
1:35 AM 47.3 °F - 17.8 °F 31% 30.16 in 10.0 mi North 6.9 mph - N/A   Scattered Clouds
1:55 AM 47.5 °F - 17.4 °F 30% 30.16 in 10.0 mi NNW 5.8 mph - N/A   Overcast
2:35 AM 46.6 °F - 16.5 °F 30% 30.15 in 10.0 mi North 4.6 mph - N/A   Mostly Cloudy
2:55 AM 46.4 °F 41.9 °F 15.8 °F 29% 30.15 in 10.0 mi North 9.2 mph - N/A   Clear
3:15 AM 45.9 °F 41.7 °F 15.6 °F 30% 30.14 in 10.0 mi North 8.1 mph - N/A   Clear
3:35 AM 45.1 °F 42.0 °F 16.2 °F 31% 30.14 in 10.0 mi North 5.8 mph - N/A   Clear
3:55 AM 45.3 °F 43.0 °F 16.9 °F 32% 30.15 in 10.0 mi North 4.6 mph - N/A   Mostly Cloudy
4:15 AM 45.9 °F 42.9 °F 16.9 °F 31% 30.15 in 10.0 mi North 5.8 mph - N/A   Overcast
4:35 AM 45.9 °F 41.7 °F 16.5 °F 31% 30.16 in 10.0 mi NNW 8.1 mph - N/A   Overcast
4:55 AM 45.7 °F 41.5 °F 16.2 °F 31% 30.16 in 10.0 mi North 8.1 mph - N/A   Overcast
5:15 AM 45.5 °F 39.2 °F 15.4 °F 30% 30.16 in 10.0 mi North 13.8 mph 17.3 mph N/A   Overcast
5:35 AM 45.0 °F 40.6 °F 14.9 °F 30% 30.17 in 10.0 mi North 8.1 mph - N/A   Overcast
5:55 AM 45.0 °F 40.6 °F 15.3 °F 30% 30.17 in 10.0 mi North 8.1 mph - N/A   Overcast
6:15 AM 44.6 °F 40.2 °F 14.5 °F 30% 30.17 in 10.0 mi North 8.1 mph - N/A   Overcast
6:55 AM 44.6 °F 38.4 °F 14.0 °F 29% 30.19 in 10.0 mi North 12.7 mph 17.3 mph N/A   Overcast
7:15 AM 44.6 °F 39.7 °F 14.0 °F 29% 30.21 in 10.0 mi North 9.2 mph 16.1 mph N/A   Overcast
7:55 AM 44.6 °F 40.7 °F 14.9 °F 30% 30.23 in 10.0 mi North 6.9 mph - N/A   Overcast
8:15 AM 44.6 °F 40.2 °F 14.7 °F 30% 30.24 in 10.0 mi North 8.1 mph - N/A   Overcast
8:35 AM 44.6 °F 39.7 °F 14.5 °F 30% 30.25 in 10.0 mi North 9.2 mph - N/A   Overcast
8:55 AM 44.4 °F 39.0 °F 14.5 °F 30% 30.27 in 10.0 mi North 10.4 mph - N/A   Overcast
9:15 AM 44.6 °F 39.7 °F 14.9 °F 30% 30.27 in 10.0 mi North 9.2 mph - N/A   Overcast
9:35 AM 44.2 °F 38.4 °F 15.8 °F 32% 30.28 in 10.0 mi North 11.5 mph - N/A   Overcast
9:55 AM 43.7 °F 37.3 °F 16.0 °F 33% 30.29 in 10.0 mi NNE 12.7 mph 17.3 mph N/A   Overcast
10:15 AM 43.7 °F 37.3 °F 17.1 °F 34% 30.31 in 10.0 mi North 12.7 mph 16.1 mph N/A   Overcast
10:35 AM 43.7 °F 37.7 °F 17.6 °F 35% 30.32 in 10.0 mi North 11.5 mph - N/A   Overcast
11:15 AM 43.2 °F 36.6 °F 18.5 °F 37% 30.33 in 10.0 mi North 12.7 mph - N/A   Overcast
11:35 AM 43.7 °F 37.7 °F 18.5 °F 36% 30.35 in 10.0 mi North 11.5 mph 17.3 mph N/A   Overcast
11:55 AM 44.6 °F 38.8 °F 18.5 °F 35% 30.34 in 10.0 mi NNW 11.5 mph - N/A   Overcast
12:15 PM 44.6 °F 39.2 °F 18.1 °F 35% 30.33 in 10.0 mi North 10.4 mph 18.4 mph N/A   Overcast
12:35 PM 45.0 °F 40.1 °F 17.8 °F 34% 30.33 in 10.0 mi North 9.2 mph 16.1 mph N/A   Overcast
12:55 PM 46.2 °F 40.5 °F 18.3 °F 33% 30.32 in 10.0 mi North 12.7 mph - N/A   Overcast
1:15 PM 45.7 °F 40.6 °F 18.3 °F 34% 30.32 in 10.0 mi North 10.4 mph 20.7 mph N/A   Overcast
1:35 PM 45.1 °F 38.4 °F 18.1 °F 34% 30.30 in 10.0 mi North 15.0 mph 21.9 mph N/A   Overcast
1:55 PM 45.5 °F 39.6 °F 18.5 °F 34% 30.31 in 10.0 mi North 12.7 mph 17.3 mph N/A   Overcast
2:15 PM 44.8 °F 39.0 °F 18.3 °F 35% 30.30 in 10.0 mi North 11.5 mph - N/A   Overcast
2:35 PM 45.0 °F 37.9 °F 18.5 °F 35% 30.29 in 10.0 mi North 16.1 mph - N/A   Overcast
2:55 PM 45.1 °F 38.8 °F 18.9 °F 35% 30.29 in 10.0 mi North 13.8 mph 18.4 mph N/A   Overcast
3:15 PM 44.8 °F 39.0 °F 18.9 °F 36% 30.30 in 10.0 mi North 11.5 mph 18.4 mph N/A   Overcast
3:35 PM 45.3 °F 39.0 °F 18.9 °F 35% 30.31 in 10.0 mi North 13.8 mph 18.4 mph N/A   Overcast
3:55 PM 45.1 °F 39.5 °F 18.9 °F 35% 30.31 in 10.0 mi North 11.5 mph 19.6 mph N/A   Overcast
4:15 PM 45.7 °F 39.8 °F 19.0 °F 35% 30.30 in 10.0 mi North 12.7 mph 17.3 mph N/A   Overcast
4:35 PM 45.1 °F 39.5 °F 18.5 °F 35% 30.31 in 10.0 mi NNE 11.5 mph 17.3 mph N/A   Overcast
5:15 PM 44.2 °F 38.8 °F 19.2 °F 37% 30.32 in 10.0 mi NNE 10.4 mph - N/A   Overcast
5:35 PM 44.1 °F 37.7 °F 20.1 °F 39% 30.33 in 10.0 mi NNE 12.7 mph 18.4 mph N/A   Overcast
5:55 PM 42.8 °F 37.5 °F 20.1 °F 40% 30.34 in 10.0 mi NNE 9.2 mph 18.4 mph N/A   Overcast
6:15 PM 42.3 °F 36.3 °F 20.1 °F 41% 30.35 in 10.0 mi North 10.4 mph 16.1 mph N/A   Overcast
6:35 PM 41.5 °F 35.0 °F 19.9 °F 42% 30.36 in 10.0 mi North 11.5 mph 18.4 mph N/A   Overcast
6:55 PM 41.0 °F 34.3 °F 19.9 °F 43% 30.37 in 10.0 mi North 11.5 mph - N/A   Mostly Cloudy
7:15 PM 40.3 °F 33.4 °F 19.4 °F 43% 30.38 in 10.0 mi North 11.5 mph - N/A   Mostly Cloudy
7:35 PM 40.1 °F 34.1 °F 18.5 °F 42% 30.40 in 10.0 mi North 9.2 mph 17.3 mph N/A   Overcast
8:15 PM 38.7 °F 30.1 °F 17.6 °F 43% 30.42 in 10.0 mi North 15.0 mph 20.7 mph N/A   Mostly Cloudy
8:35 PM 38.3 °F 31.4 °F 17.1 °F 42% 30.43 in 10.0 mi NNE 10.4 mph 18.4 mph N/A   Scattered Clouds
9:15 PM 37.8 °F 30.2 °F 15.1 °F 40% 30.45 in 10.0 mi North 11.5 mph - N/A   Clear
9:55 PM 37.6 °F 30.5 °F 12.6 °F 36% 30.46 in 10.0 mi North 10.4 mph 18.4 mph N/A   Overcast
10:35 PM 37.4 °F 29.8 °F 12.7 °F 36% 30.45 in 10.0 mi North 11.5 mph - N/A   Overcast
11:15 PM 37.4 °F 32.1 °F 12.9 °F 37% 30.47 in 10.0 mi North 6.9 mph - N/A   Overcast
11:35 PM 37.4 °F 32.1 °F 12.7 °F 36% 30.47 in 10.0 mi North 6.9 mph - N/A   Overcast
11:55 PM 36.3 °F 33.7 °F 18.3 °F 48% 30.48 in 10.0 mi NW 3.5 mph - N/A Rain Light Rain